Time,TemperatureF,DewpointF,PressureIn,WindDirection,WindDirectionDegrees,WindSpeedMPH,WindSpeedGustMPH,Humidity,HourlyPrecipIn,Conditions,Clouds,dailyrainin,SolarRadiationWatts/m^2,SoftwareType,DateUTC
2013-11-30 00:01:00,34.7,26.3,30.62,North,360,0.0,0.0,71,0.00,RA,,0.00,0.0,WeatherDisplay:10.37,2013-11-30 05:01:00,
2013-11-30 00:06:00,34.7,26.3,30.62,North,360,0.0,0.0,71,0.00,RA,,0.00,0.0,WeatherDisplay:10.37,2013-11-30 05:06:00,
2013-11-30 00:11:00,34.6,26.2,30.62,North,3,0.0,0.0,71,0.00,FEW,,0.00,0.0,WeatherDisplay:10.37,2013-11-30 05:11:00,
2013-11-30 00:16:00,34.4,26.4,30.62,SSE,161,0.0,0.0,72,0.00,FEW,,0.00,0.0,WeatherDisplay:10.37,2013-11-30 05:16:00,
2013-11-30 00:21:00,34.4,26.3,30.62,South,169,0.0,0.0,72,0.00,FEW,,0.00,0.0,WeatherDisplay:10.37,2013-11-30 05:21:00,
2013-11-30 00:26:00,34.3,26.2,30.62,South,169,0.0,0.0,72,0.00,FEW,,0.00,0.0,WeatherDisplay:10.37,2013-11-30 05:26:00,
2013-11-30 00:31:00,34.1,26.0,30.61,South,169,0.0,0.0,72,0.00,FEW,,0.00,0.0,WeatherDisplay:10.37,2013-11-30 05:31:00,
2013-11-30 00:36:00,34.1,26.3,30.61,South,169,0.0,0.0,73,0.00,FEW,,0.00,0.0,WeatherDisplay:10.37,2013-11-30 05:36:00,
2013-11-30 00:41:00,34.0,26.3,30.61,South,169,0.0,0.0,73,0.00,FEW,,0.00,0.0,WeatherDisplay:10.37,2013-11-30 05:41:00,
2013-11-30 00:46:00,34.0,26.3,30.61,South,169,0.0,0.0,73,0.00,FEW,,0.00,0.0,WeatherDisplay:10.37,2013-11-30 05:46:00,
2013-11-30 00:51:00,33.8,26.1,30.61,South,169,0.0,0.0,73,0.00,FEW,,0.00,0.0,WeatherDisplay:10.37,2013-11-30 05:51:00,
2013-11-30 00:56:00,33.7,26.0,30.61,South,169,0.0,0.0,73,0.00,FEW,,0.00,0.0,WeatherDisplay:10.37,2013-11-30 05:56:00,
2013-11-30 01:01:00,33.5,26.1,30.61,South,169,0.0,0.0,74,0.00,CLR,,0.00,0.0,WeatherDisplay:10.37,2013-11-30 06:01:00,
2013-11-30 01:06:00,33.5,26.1,30.61,South,169,0.0,0.0,74,0.00,CLR,,0.00,0.0,WeatherDisplay:10.37,2013-11-30 06:06:00,
2013-11-30 01:11:00,33.4,26.0,30.61,South,169,0.0,0.0,74,0.00,CLR,,0.00,0.0,WeatherDisplay:10.37,2013-11-30 06:11:00,
2013-11-30 01:16:00,33.2,25.8,30.61,SSE,168,0.0,0.0,74,0.00,CLR,,0.00,0.0,WeatherDisplay:10.37,2013-11-30 06:16:00,
2013-11-30 01:21:00,33.1,25.7,30.61,SSE,166,0.0,0.0,74,0.00,CLR,,0.00,0.0,WeatherDisplay:10.37,2013-11-30 06:21:00,
2013-11-30 01:26:00,33.1,26.0,30.61,SSE,165,0.0,0.0,75,0.00,CLR,,0.00,0.0,WeatherDisplay:10.37,2013-11-30 06:26:00,
2013-11-30 01:31:00,32.9,25.8,30.60,SSE,165,0.0,0.0,75,0.00,CLR,,0.00,0.0,WeatherDisplay:10.37,2013-11-30 06:31:00,
2013-11-30 01:36:00,32.8,25.7,30.60,SSE,165,0.0,0.0,75,0.00,CLR,,0.00,0.0,WeatherDisplay:10.37,2013-11-30 06:36:00,
2013-11-30 01:41:00,32.8,26.1,30.60,SSE,165,0.0,0.0,76,0.00,CLR,,0.00,0.0,WeatherDisplay:10.37,2013-11-30 06:41:00,
2013-11-30 01:46:00,32.7,26.0,30.60,SSE,165,0.0,0.0,76,0.00,CLR,,0.00,0.0,WeatherDisplay:10.37,2013-11-30 06:46:00,
2013-11-30 01:51:00,32.5,25.8,30.60,SSE,165,0.0,0.0,76,0.00,CLR,,0.00,0.0,WeatherDisplay:10.37,2013-11-30 06:51:00,
2013-11-30 01:56:00,32.5,25.8,30.60,SSE,165,0.0,0.0,76,0.00,CLR,,0.00,0.0,WeatherDisplay:10.37,2013-11-30 06:56:00,
2013-11-30 02:01:00,32.4,25.7,30.60,SSE,165,0.0,0.0,76,0.00,CLR,,0.00,0.0,WeatherDisplay:10.37,2013-11-30 07:01:00,
2013-11-30 02:06:00,32.4,26.0,30.60,SSE,165,0.0,0.0,77,0.00,CLR,,0.00,0.0,WeatherDisplay:10.37,2013-11-30 07:06:00,
2013-11-30 02:11:00,32.4,26.0,30.60,SSE,165,0.0,0.0,77,0.00,CLR,,0.00,0.0,WeatherDisplay:10.37,2013-11-30 07:11:00,
2013-11-30 02:16:00,32.2,25.8,30.60,SSE,161,0.0,0.0,77,0.00,CLR,,0.00,0.0,WeatherDisplay:10.37,2013-11-30 07:16:00,
2013-11-30 02:21:00,32.2,25.8,30.60,SSE,159,0.0,0.0,77,0.00,CLR,,0.00,0.0,WeatherDisplay:10.37,2013-11-30 07:21:00,
2013-11-30 02:26:00,32.2,25.8,30.60,SSE,159,0.0,0.0,77,0.00,CLR,,0.00,0.0,WeatherDisplay:10.37,2013-11-30 07:26:00,
2013-11-30 02:31:00,32.2,25.8,30.60,SSE,159,0.0,0.0,77,0.00,CLR,,0.00,0.0,WeatherDisplay:10.37,2013-11-30 07:31:00,
2013-11-30 02:36:00,32.2,25.8,30.60,SE,134,0.0,0.0,77,0.00,CLR,,0.00,0.0,WeatherDisplay:10.37,2013-11-30 07:36:00,
2013-11-30 02:41:00,32.2,25.8,30.60,NE,54,0.0,1.0,77,0.00,CLR,,0.00,0.0,WeatherDisplay:10.37,2013-11-30 07:41:00,
2013-11-30 02:46:00,32.2,25.8,30.60,NE,40,0.0,0.0,77,0.00,CLR,,0.00,0.0,WeatherDisplay:10.37,2013-11-30 07:46:00,
2013-11-30 02:51:00,32.2,25.8,30.60,NE,40,0.0,0.0,77,0.00,CLR,,0.00,0.0,WeatherDisplay:10.37,2013-11-30 07:51:00,
2013-11-30 02:56:00,32.2,25.8,30.60,NE,40,0.0,0.0,77,0.00,CLR,,0.00,0.0,WeatherDisplay:10.37,2013-11-30 07:56:00,
2013-11-30 03:01:00,32.2,25.8,30.60,NE,40,0.0,0.0,77,0.00,CLR,,0.00,0.0,WeatherDisplay:10.37,2013-11-30 08:01:00,
2013-11-30 03:11:00,32.2,25.5,30.60,NNE,28,0.0,0.0,76,0.00,CLR,,0.00,0.0,WeatherDisplay:10.37,2013-11-30 08:11:00,
2013-11-30 03:16:00,32.2,25.5,30.59,NNE,18,0.0,0.0,76,0.00,CLR,,0.00,0.0,WeatherDisplay:10.37,2013-11-30 08:16:00,
2013-11-30 03:21:00,32.2,25.5,30.59,NNE,20,0.0,0.0,76,0.00,CLR,,0.00,0.0,WeatherDisplay:10.37,2013-11-30 08:21:00,
2013-11-30 03:26:00,32.4,25.4,30.59,NNE,20,0.0,0.0,75,0.00,CLR,,0.00,0.0,WeatherDisplay:10.37,2013-11-30 08:26:00,
2013-11-30 03:31:00,32.4,25.4,30.59,NNE,20,0.0,0.0,75,0.00,CLR,,0.00,0.0,WeatherDisplay:10.37,2013-11-30 08:31:00,
2013-11-30 03:36:00,32.4,25.4,30.59,NNE,20,0.0,0.0,75,0.00,CLR,,0.00,0.0,WeatherDisplay:10.37,2013-11-30 08:36:00,
2013-11-30 03:41:00,32.4,25.4,30.59,NNE,23,0.0,0.0,75,0.00,CLR,,0.00,0.0,WeatherDisplay:10.37,2013-11-30 08:41:00,
2013-11-30 03:46:00,32.4,25.0,30.59,NNE,18,0.0,0.0,74,0.00,CLR,,0.00,0.0,WeatherDisplay:10.37,2013-11-30 08:46:00,
2013-11-30 03:51:00,32.4,25.0,30.59,North,10,0.0,0.0,74,0.00,CLR,,0.00,0.0,WeatherDisplay:10.37,2013-11-30 08:51:00,
2013-11-30 03:56:00,32.4,25.0,30.59,North,7,0.0,0.0,74,0.00,CLR,,0.00,0.0,WeatherDisplay:10.37,2013-11-30 08:56:00,
2013-11-30 04:01:00,32.4,25.0,30.59,North,2,0.0,0.0,74,0.00,CLR,,0.00,0.0,WeatherDisplay:10.37,2013-11-30 09:01:00,
2013-11-30 04:11:00,32.2,24.8,30.58,North,0,0.0,0.0,74,0.00,CLR,,0.00,0.0,WeatherDisplay:10.37,2013-11-30 09:11:00,
2013-11-30 04:16:00,32.2,24.8,30.58,North,360,0.0,0.0,74,0.00,CLR,,0.00,0.0,WeatherDisplay:10.37,2013-11-30 09:16:00,
2013-11-30 04:21:00,32.2,24.8,30.58,North,4,0.0,0.0,74,0.00,CLR,,0.00,0.0,WeatherDisplay:10.37,2013-11-30 09:21:00,
2013-11-30 04:31:00,32.2,24.8,30.58,NNE,19,0.0,0.0,74,0.00,CLR,,0.00,0.0,WeatherDisplay:10.37,2013-11-30 09:31:00,
2013-11-30 04:36:00,32.2,24.8,30.58,NNE,28,0.0,0.0,74,0.00,CLR,,0.00,0.0,WeatherDisplay:10.37,2013-11-30 09:36:00,
2013-11-30 04:41:00,32.2,24.8,30.58,NNE,26,0.0,1.0,74,0.00,CLR,,0.00,0.0,WeatherDisplay:10.37,2013-11-30 09:41:00,
2013-11-30 04:46:00,32.2,24.8,30.58,NNE,22,0.0,0.0,74,0.00,CLR,,0.00,0.0,WeatherDisplay:10.37,2013-11-30 09:46:00,
2013-11-30 04:51:00,32.2,24.8,30.58,NNE,22,0.0,0.0,74,0.00,CLR,,0.00,0.0,WeatherDisplay:10.37,2013-11-30 09:51:00,
2013-11-30 04:56:00,32.2,24.8,30.58,NNE,20,0.0,0.0,74,0.00,CLR,,0.00,0.0,WeatherDisplay:10.37,2013-11-30 09:56:00,
2013-11-30 05:01:00,32.2,24.8,30.58,NNE,20,0.0,0.0,74,0.00,CLR,,0.00,0.0,WeatherDisplay:10.37,2013-11-30 10:01:00,
2013-11-30 05:06:00,32.2,24.8,30.58,NNE,21,0.0,0.0,74,0.00,CLR,,0.00,0.0,WeatherDisplay:10.37,2013-11-30 10:06:00,
2013-11-30 05:11:00,32.2,24.8,30.58,NNE,23,0.0,0.0,74,0.00,CLR,,0.00,0.0,WeatherDisplay:10.37,2013-11-30 10:11:00,
2013-11-30 05:16:00,32.1,24.8,30.58,NNE,24,0.0,0.0,74,0.00,CLR,,0.00,0.0,WeatherDisplay:10.37,2013-11-30 10:16:00,
2013-11-30 05:21:00,32.1,24.7,30.58,NNE,24,0.0,0.0,74,0.00,CLR,,0.00,0.0,WeatherDisplay:10.37,2013-11-30 10:21:00,
2013-11-30 05:26:00,32.1,24.7,30.58,NNE,21,0.0,0.0,74,0.00,CLR,,0.00,0.0,WeatherDisplay:10.37,2013-11-30 10:26:00,
2013-11-30 05:31:00,32.1,25.1,30.58,NNE,17,0.0,0.0,75,0.00,CLR,,0.00,0.0,WeatherDisplay:10.37,2013-11-30 10:31:00,
2013-11-30 05:36:00,32.1,25.1,30.58,NNE,17,0.0,0.0,75,0.00,CLR,,0.00,0.0,WeatherDisplay:10.37,2013-11-30 10:36:00,
2013-11-30 05:41:00,32.1,25.1,30.58,NNE,17,0.0,0.0,75,0.00,CLR,,0.00,0.0,WeatherDisplay:10.37,2013-11-30 10:41:00,
2013-11-30 05:46:00,32.1,24.7,30.58,NNE,17,0.0,0.0,74,0.00,CLR,,0.00,0.0,WeatherDisplay:10.37,2013-11-30 10:46:00,
2013-11-30 05:51:00,32.1,24.7,30.58,NNE,14,0.0,0.0,74,0.00,CLR,,0.00,0.0,WeatherDisplay:10.37,2013-11-30 10:51:00,
2013-11-30 05:56:00,31.9,24.6,30.58,North,11,0.0,0.0,74,0.00,CLR,,0.00,0.0,WeatherDisplay:10.37,2013-11-30 10:56:00,
2013-11-30 06:01:00,31.9,24.6,30.58,NNE,20,0.0,0.0,74,0.00,CLR,,0.00,0.0,WeatherDisplay:10.37,2013-11-30 11:01:00,
2013-11-30 06:06:00,31.9,24.6,30.58,NNE,26,0.0,0.0,74,0.00,CLR,,0.00,0.0,WeatherDisplay:10.37,2013-11-30 11:06:00,
2013-11-30 06:11:00,31.8,24.5,30.58,NNE,26,0.0,0.0,74,0.00,CLR,,0.00,0.0,WeatherDisplay:10.37,2013-11-30 11:11:00,
2013-11-30 06:16:00,31.8,24.5,30.58,NNE,19,0.0,0.0,74,0.00,CLR,,0.00,0.0,WeatherDisplay:10.37,2013-11-30 11:16:00,
2013-11-30 06:21:00,31.8,24.5,30.58,NNE,14,0.0,0.0,74,0.00,CLR,,0.00,0.0,WeatherDisplay:10.37,2013-11-30 11:21:00,
2013-11-30 06:26:00,31.8,24.5,30.58,North,8,0.0,0.0,74,0.00,CLR,,0.00,0.0,WeatherDisplay:10.37,2013-11-30 11:26:00,
2013-11-30 06:31:00,31.6,24.3,30.58,North,9,0.0,1.0,74,0.00,CLR,,0.00,0.0,WeatherDisplay:10.37,2013-11-30 11:31:00,
2013-11-30 06:36:00,31.6,24.6,30.58,NNE,20,0.0,0.0,75,0.00,CLR,,0.00,0.0,WeatherDisplay:10.37,2013-11-30 11:36:00,
2013-11-30 06:41:00,31.6,24.6,30.58,NNE,17,0.0,0.0,75,0.00,CLR,,0.00,0.0,WeatherDisplay:10.37,2013-11-30 11:41:00,
2013-11-30 06:46:00,31.5,24.5,30.58,North,10,0.0,0.0,75,0.00,CLR,,0.00,0.0,WeatherDisplay:10.37,2013-11-30 11:46:00,
2013-11-30 06:51:00,31.5,24.5,30.58,NNE,15,0.0,0.0,75,0.00,CLR,,0.00,0.0,WeatherDisplay:10.37,2013-11-30 11:51:00,
2013-11-30 06:56:00,31.3,24.3,30.58,NNE,20,0.0,0.0,75,0.00,CLR,,0.00,0.0,WeatherDisplay:10.37,2013-11-30 11:56:00,
2013-11-30 07:01:00,31.3,24.3,30.59,NNE,20,0.0,0.0,75,0.00,CLR,,0.00,0.0,WeatherDisplay:10.37,2013-11-30 12:01:00,
2013-11-30 07:06:00,31.2,24.5,30.59,NNE,20,0.0,0.0,76,0.00,CLR,,0.00,0.0,WeatherDisplay:10.37,2013-11-30 12:06:00,
2013-11-30 07:11:00,31.2,24.5,30.59,North,8,0.0,0.0,76,0.00,CLR,,0.00,5.8,WeatherDisplay:10.37,2013-11-30 12:11:00,
2013-11-30 07:16:00,31.0,24.3,30.59,North,4,0.0,0.0,76,0.00,CLR,,0.00,8.1,WeatherDisplay:10.37,2013-11-30 12:16:00,
2013-11-30 07:21:00,31.0,24.3,30.60,North,11,0.0,0.0,76,0.00,CLR,,0.00,10.3,WeatherDisplay:10.37,2013-11-30 12:21:00,
2013-11-30 07:26:00,30.9,24.2,30.60,NNE,17,0.0,0.0,76,0.00,CLR,,0.00,12.7,WeatherDisplay:10.37,2013-11-30 12:26:00,
2013-11-30 07:31:00,30.9,24.5,30.60,NNE,13,0.0,0.0,77,0.00,CLR,,0.00,13.8,WeatherDisplay:10.37,2013-11-30 12:31:00,
2013-11-30 07:36:00,30.8,24.4,30.60,North,359,0.0,0.0,77,0.00,CLR,,0.00,16.1,WeatherDisplay:10.37,2013-11-30 12:36:00,
2013-11-30 07:41:00,30.7,24.3,30.60,North,355,0.0,0.0,77,0.00,CLR,,0.00,18.4,WeatherDisplay:10.37,2013-11-30 12:41:00,
2013-11-30 07:46:00,30.7,24.7,30.60,North,2,0.0,0.0,78,0.00,CLR,,0.00,20.7,WeatherDisplay:10.37,2013-11-30 12:46:00,
2013-11-30 07:51:00,30.7,24.7,30.61,North,7,0.0,0.0,78,0.00,CLR,,0.00,21.9,WeatherDisplay:10.37,2013-11-30 12:51:00,
2013-11-30 07:56:00,30.7,24.7,30.61,NNE,15,0.0,0.0,78,0.00,CLR,,0.00,24.1,WeatherDisplay:10.37,2013-11-30 12:56:00,
2013-11-30 08:01:00,30.9,24.8,30.61,NNE,21,0.0,0.0,78,0.00,FEW,,0.00,26.4,WeatherDisplay:10.37,2013-11-30 13:01:00,
2013-11-30 08:06:00,30.9,24.8,30.61,NNE,27,0.0,0.0,78,0.00,FEW,,0.00,28.8,WeatherDisplay:10.37,2013-11-30 13:06:00,
2013-11-30 08:11:00,31.0,24.9,30.61,NNE,25,0.0,0.0,78,0.00,FEW,,0.00,29.9,WeatherDisplay:10.37,2013-11-30 13:11:00,
2013-11-30 08:16:00,31.1,25.1,30.61,NNE,19,0.0,0.0,78,0.00,FEW,,0.00,32.2,WeatherDisplay:10.37,2013-11-30 13:16:00,
2013-11-30 08:21:00,31.3,25.2,30.61,NNE,19,0.0,1.0,78,0.00,FEW,,0.00,34.5,WeatherDisplay:10.37,2013-11-30 13:21:00,
2013-11-30 08:26:00,31.5,25.4,30.61,North,8,0.0,0.0,78,0.00,FEW,,0.00,36.8,WeatherDisplay:10.37,2013-11-30 13:26:00,
2013-11-30 08:31:00,31.6,25.5,30.61,North,3,0.0,2.0,78,0.00,FEW,,0.00,36.8,WeatherDisplay:10.37,2013-11-30 13:31:00,
2013-11-30 08:36:00,31.9,25.5,30.61,NNE,19,0.0,0.0,77,0.00,FEW,,0.00,36.8,WeatherDisplay:10.37,2013-11-30 13:36:00,
2013-11-30 08:41:00,32.1,25.7,30.61,NNE,16,0.0,0.0,77,0.00,FEW,,0.00,38.0,WeatherDisplay:10.37,2013-11-30 13:41:00,
2013-11-30 08:46:00,32.4,26.0,30.61,North,10,0.0,0.0,77,0.00,FEW,,0.00,38.0,WeatherDisplay:10.37,2013-11-30 13:46:00,
2013-11-30 08:51:00,32.5,26.1,30.61,North,3,0.0,1.0,77,0.00,FEW,,0.00,40.3,WeatherDisplay:10.37,2013-11-30 13:51:00,
2013-11-30 08:56:00,32.8,26.1,30.61,North,4,0.0,1.0,76,0.00,FEW,,0.00,40.3,WeatherDisplay:10.37,2013-11-30 13:56:00,
2013-11-30 09:01:00,33.0,26.3,30.61,North,3,0.0,0.0,76,0.00,FEW,,0.00,42.5,WeatherDisplay:10.37,2013-11-30 14:01:00,
2013-11-30 09:06:00,33.3,26.6,30.60,North,10,0.0,0.0,76,0.00,FEW,,0.00,44.9,WeatherDisplay:10.37,2013-11-30 14:06:00,
2013-11-30 09:11:00,33.7,26.6,30.60,NNE,14,0.0,0.0,75,0.00,FEW,,0.00,46.0,WeatherDisplay:10.37,2013-11-30 14:11:00,
2013-11-30 09:16:00,33.9,26.5,30.60,NNE,12,0.0,0.0,74,0.00,FEW,,0.00,44.9,WeatherDisplay:10.37,2013-11-30 14:16:00,
2013-11-30 09:21:00,34.3,26.8,30.60,NNE,21,0.0,0.0,74,0.00,FEW,,0.00,46.0,WeatherDisplay:10.37,2013-11-30 14:21:00,
2013-11-30 09:26:00,34.6,26.8,30.60,NNE,17,0.0,1.0,73,0.00,FEW,,0.00,48.3,WeatherDisplay:10.37,2013-11-30 14:26:00,
2013-11-30 09:31:00,34.9,27.1,30.60,NNE,15,0.0,0.0,73,0.00,FEW,,0.00,48.3,WeatherDisplay:10.37,2013-11-30 14:31:00,
2013-11-30 09:36:00,35.2,27.1,30.60,NNE,21,0.0,1.0,72,0.00,FEW,,0.00,48.3,WeatherDisplay:10.37,2013-11-30 14:36:00,
2013-11-30 09:41:00,35.5,27.0,30.60,NNE,17,0.0,0.0,71,0.00,FEW,,0.00,48.3,WeatherDisplay:10.37,2013-11-30 14:41:00,
2013-11-30 09:46:00,35.9,27.4,30.60,NNE,21,0.0,0.0,71,0.00,FEW,,0.00,50.6,WeatherDisplay:10.37,2013-11-30 14:46:00,
2013-11-30 09:51:00,36.3,27.8,30.60,NNE,14,0.0,0.0,71,0.00,FEW,,0.00,82.8,WeatherDisplay:10.37,2013-11-30 14:51:00,
2013-11-30 09:56:00,37.0,27.8,30.60,North,7,0.0,0.0,69,0.00,FEW,,0.00,384.1,WeatherDisplay:10.37,2013-11-30 14:56:00,
2013-11-30 10:01:00,37.8,28.2,30.60,NNE,14,0.0,5.0,68,0.00,FEW,,0.00,416.3,WeatherDisplay:10.37,2013-11-30 15:01:00,
2013-11-30 10:06:00,38.4,29.2,30.60,NNE,24,0.0,2.0,69,0.00,FEW,,0.00,428.9,WeatherDisplay:10.37,2013-11-30 15:06:00,
2013-11-30 10:11:00,39.2,29.5,30.60,NNE,15,0.0,0.0,68,0.00,FEW,,0.00,437.0,WeatherDisplay:10.37,2013-11-30 15:11:00,
2013-11-30 10:16:00,39.5,29.1,30.60,NNE,19,0.0,1.0,66,0.00,FEW,,0.00,418.6,WeatherDisplay:10.37,2013-11-30 15:16:00,
2013-11-30 10:21:00,40.2,30.1,30.60,NNE,22,0.0,0.0,67,0.00,FEW,,0.00,362.3,WeatherDisplay:10.37,2013-11-30 15:21:00,
2013-11-30 10:26:00,40.5,30.0,30.60,NNE,27,0.0,0.0,66,0.00,FEW,,0.00,226.6,WeatherDisplay:10.37,2013-11-30 15:26:00,
2013-11-30 10:31:00,40.7,30.2,30.59,NE,35,0.0,1.0,66,0.00,FEW,,0.00,87.4,WeatherDisplay:10.37,2013-11-30 15:31:00,
2013-11-30 10:36:00,40.9,30.8,30.58,NNE,29,0.0,2.0,67,0.00,FEW,,0.00,216.2,WeatherDisplay:10.37,2013-11-30 15:36:00,
2013-11-30 10:41:00,41.1,31.0,30.58,NNE,20,0.0,3.0,67,0.00,FEW,,0.00,167.9,WeatherDisplay:10.37,2013-11-30 15:41:00,
2013-11-30 10:46:00,41.3,30.8,30.58,NNE,12,0.0,3.0,66,0.00,FEW,,0.00,127.7,WeatherDisplay:10.37,2013-11-30 15:46:00,
2013-11-30 10:51:00,41.5,31.0,30.58,North,2,0.0,3.0,66,0.00,FEW,,0.00,179.4,WeatherDisplay:10.37,2013-11-30 15:51:00,
2013-11-30 10:56:00,41.8,31.6,30.58,NNE,18,0.0,2.0,67,0.00,FEW,,0.00,120.8,WeatherDisplay:10.37,2013-11-30 15:56:00,
2013-11-30 11:01:00,41.9,31.7,30.57,NNE,30,0.0,0.0,67,0.00,SCT,,0.00,165.6,WeatherDisplay:10.37,2013-11-30 16:01:00,
2013-11-30 11:06:00,42.2,32.0,30.57,NNE,27,0.0,3.0,67,0.00,SCT,,0.00,79.3,WeatherDisplay:10.37,2013-11-30 16:06:00,
2013-11-30 11:11:00,42.3,32.1,30.57,NNE,17,0.0,1.0,67,0.00,SCT,,0.00,62.1,WeatherDisplay:10.37,2013-11-30 16:11:00,
2013-11-30 11:16:00,42.5,31.6,30.57,NNE,15,0.0,1.0,65,0.00,SCT,,0.00,101.2,WeatherDisplay:10.37,2013-11-30 16:16:00,
2013-11-30 11:21:00,42.6,31.7,30.57,NNE,31,0.0,0.0,65,0.00,SCT,,0.00,103.5,WeatherDisplay:10.37,2013-11-30 16:21:00,
2013-11-30 11:26:00,43.1,32.5,30.57,NE,39,0.0,0.0,66,0.00,SCT,,0.00,104.7,WeatherDisplay:10.37,2013-11-30 16:26:00,
2013-11-30 11:31:00,43.3,32.3,30.56,NE,34,0.0,1.0,65,0.00,SCT,,0.00,312.8,WeatherDisplay:10.37,2013-11-30 16:31:00,
2013-11-30 11:36:00,43.6,32.2,30.56,NNE,17,0.0,5.0,64,0.00,SCT,,0.00,129.9,WeatherDisplay:10.37,2013-11-30 16:36:00,
2013-11-30 11:41:00,43.8,32.4,30.56,NNE,30,0.0,0.0,64,0.00,SCT,,0.00,129.9,WeatherDisplay:10.37,2013-11-30 16:41:00,
2013-11-30 11:46:00,43.9,32.5,30.56,NE,38,0.0,0.0,64,0.00,SCT,,0.00,56.4,WeatherDisplay:10.37,2013-11-30 16:46:00,
2013-11-30 11:51:00,44.1,32.7,30.55,NNE,19,0.0,1.0,64,0.00,SCT,,0.00,69.0,WeatherDisplay:10.37,2013-11-30 16:51:00,
2013-11-30 11:56:00,44.3,32.9,30.55,North,9,0.0,1.0,64,0.00,SCT,,0.00,104.7,WeatherDisplay:10.37,2013-11-30 16:56:00,
2013-11-30 12:01:00,44.6,33.2,30.55,North,10,0.0,0.0,64,0.00,SCT,,0.00,79.3,WeatherDisplay:10.37,2013-11-30 17:01:00,
2013-11-30 12:06:00,44.8,32.6,30.55,NNE,25,0.0,0.0,62,0.00,SCT,,0.00,234.6,WeatherDisplay:10.37,2013-11-30 17:06:00,
2013-11-30 12:11:00,45.1,33.7,30.55,NNE,19,0.0,1.0,64,0.00,SCT,,0.00,226.6,WeatherDisplay:10.37,2013-11-30 17:11:00,
2013-11-30 12:16:00,45.7,33.8,30.54,North,10,0.0,0.0,63,0.00,SCT,,0.00,123.0,WeatherDisplay:10.37,2013-11-30 17:16:00,
2013-11-30 12:21:00,45.8,33.5,30.54,NNE,15,0.0,0.0,62,0.00,SCT,,0.00,85.1,WeatherDisplay:10.37,2013-11-30 17:21:00,
2013-11-30 12:26:00,45.8,33.5,30.54,NNE,12,0.0,1.0,62,0.00,SCT,,0.00,138.0,WeatherDisplay:10.37,2013-11-30 17:26:00,
2013-11-30 12:31:00,46.1,33.4,30.53,NNE,22,0.0,0.0,61,0.00,SCT,,0.00,163.3,WeatherDisplay:10.37,2013-11-30 17:31:00,
2013-11-30 12:36:00,46.4,33.7,30.52,North,11,0.0,1.0,61,0.00,SCT,,0.00,341.6,WeatherDisplay:10.37,2013-11-30 17:36:00,
2013-11-30 12:41:00,46.7,34.4,30.52,NNW,344,0.0,0.0,62,0.00,SCT,,0.00,143.8,WeatherDisplay:10.37,2013-11-30 17:41:00,
2013-11-30 12:46:00,46.8,33.6,30.52,North,0,0.0,0.0,60,0.00,SCT,,0.00,115.0,WeatherDisplay:10.37,2013-11-30 17:46:00,
2013-11-30 12:51:00,47.0,34.2,30.52,NNE,15,0.0,2.0,61,0.00,SCT,,0.00,261.1,WeatherDisplay:10.37,2013-11-30 17:51:00,
2013-11-30 12:56:00,47.0,33.8,30.52,NNE,27,0.0,0.0,60,0.00,SCT,,0.00,175.9,WeatherDisplay:10.37,2013-11-30 17:56:00,
2013-11-30 13:01:00,47.3,34.1,30.51,NE,51,0.0,2.0,60,0.00,BKN,,0.00,90.8,WeatherDisplay:10.37,2013-11-30 18:01:00,
2013-11-30 13:11:00,47.4,34.2,30.50,ENE,60,0.0,0.0,60,0.00,BKN,,0.00,87.4,WeatherDisplay:10.37,2013-11-30 18:11:00,
2013-11-30 13:16:00,47.4,34.2,30.50,NE,49,0.0,1.0,60,0.00,BKN,,0.00,62.1,WeatherDisplay:10.37,2013-11-30 18:16:00,
2013-11-30 13:21:00,47.6,34.4,30.50,North,6,0.0,0.0,60,0.00,BKN,,0.00,61.0,WeatherDisplay:10.37,2013-11-30 18:21:00,
2013-11-30 13:26:00,47.7,34.1,30.50,North,357,0.0,0.0,59,0.00,BKN,,0.00,79.3,WeatherDisplay:10.37,2013-11-30 18:26:00,
2013-11-30 13:31:00,47.7,33.6,30.49,North,9,0.0,0.0,58,0.00,BKN,,0.00,80.5,WeatherDisplay:10.37,2013-11-30 18:31:00,
2013-11-30 13:36:00,47.7,33.6,30.49,NNE,16,0.0,0.0,58,0.00,BKN,,0.00,48.3,WeatherDisplay:10.37,2013-11-30 18:36:00,
2013-11-30 13:41:00,47.7,34.5,30.49,NNE,20,0.0,0.0,60,0.00,BKN,,0.00,61.0,WeatherDisplay:10.37,2013-11-30 18:41:00,
2013-11-30 13:46:00,47.9,34.3,30.49,NNE,14,0.0,0.0,59,0.00,BKN,,0.00,66.7,WeatherDisplay:10.37,2013-11-30 18:46:00,
2013-11-30 13:51:00,48.0,34.8,30.48,North,8,0.0,0.0,60,0.00,BKN,,0.00,61.0,WeatherDisplay:10.37,2013-11-30 18:51:00,
2013-11-30 13:56:00,48.2,34.5,30.48,NNE,12,0.0,0.0,59,0.00,BKN,,0.00,50.6,WeatherDisplay:10.37,2013-11-30 18:56:00,
2013-11-30 14:01:00,48.3,34.2,30.48,NNE,15,0.0,0.0,58,0.00,SCT,,0.00,62.1,WeatherDisplay:10.37,2013-11-30 19:01:00,
2013-11-30 14:06:00,48.5,34.3,30.47,NNE,27,0.0,0.0,58,0.00,SCT,,0.00,48.3,WeatherDisplay:10.37,2013-11-30 19:06:00,
2013-11-30 14:11:00,48.5,34.4,30.47,NNE,23,0.0,0.0,58,0.00,SCT,,0.00,50.6,WeatherDisplay:10.37,2013-11-30 19:11:00,
2013-11-30 14:16:00,48.6,34.5,30.47,NNE,23,0.0,0.0,58,0.00,SCT,,0.00,95.5,WeatherDisplay:10.37,2013-11-30 19:16:00,
2013-11-30 14:21:00,48.8,34.2,30.47,NNE,33,0.0,0.0,57,0.00,SCT,,0.00,64.4,WeatherDisplay:10.37,2013-11-30 19:21:00,
2013-11-30 14:26:00,48.9,34.3,30.47,NNE,30,0.0,0.0,57,0.00,SCT,,0.00,72.5,WeatherDisplay:10.37,2013-11-30 19:26:00,
2013-11-30 14:31:00,48.9,34.8,30.46,NNE,24,0.0,0.0,58,0.00,SCT,,0.00,125.3,WeatherDisplay:10.37,2013-11-30 19:31:00,
2013-11-30 14:36:00,49.1,34.5,30.46,NNE,24,0.0,0.0,57,0.00,SCT,,0.00,58.6,WeatherDisplay:10.37,2013-11-30 19:36:00,
2013-11-30 14:41:00,49.2,34.6,30.46,NNE,17,0.0,0.0,57,0.00,SCT,,0.00,88.5,WeatherDisplay:10.37,2013-11-30 19:41:00,
2013-11-30 14:46:00,49.2,34.2,30.45,NNE,14,0.0,1.0,56,0.00,SCT,,0.00,56.4,WeatherDisplay:10.37,2013-11-30 19:46:00,
2013-11-30 14:51:00,49.2,34.2,30.45,North,10,0.0,0.0,56,0.00,SCT,,0.00,52.9,WeatherDisplay:10.37,2013-11-30 19:51:00,
2013-11-30 14:56:00,49.4,34.8,30.45,North,2,0.0,0.0,57,0.00,SCT,,0.00,115.0,WeatherDisplay:10.37,2013-11-30 19:56:00,
2013-11-30 15:01:00,49.5,34.9,30.45,North,5,0.0,0.0,57,0.00,SCT,,0.00,56.4,WeatherDisplay:10.37,2013-11-30 20:01:00,
2013-11-30 15:06:00,49.5,34.9,30.45,North,11,0.0,0.0,57,0.00,SCT,,0.00,52.9,WeatherDisplay:10.37,2013-11-30 20:06:00,
2013-11-30 15:11:00,49.5,34.9,30.45,North,9,0.0,0.0,57,0.00,SCT,,0.00,69.0,WeatherDisplay:10.37,2013-11-30 20:11:00,
2013-11-30 15:16:00,49.6,34.5,30.45,North,6,0.0,0.0,56,0.00,SCT,,0.00,62.1,WeatherDisplay:10.37,2013-11-30 20:16:00,
2013-11-30 15:21:00,49.6,34.5,30.44,NNE,23,0.0,0.0,56,0.00,SCT,,0.00,64.4,WeatherDisplay:10.37,2013-11-30 20:21:00,
2013-11-30 15:26:00,49.5,34.0,30.44,ENE,67,0.0,0.0,55,0.00,SCT,,0.00,48.3,WeatherDisplay:10.37,2013-11-30 20:26:00,
2013-11-30 15:31:00,49.5,34.4,30.44,East,90,0.0,0.0,56,0.00,SCT,,0.00,50.6,WeatherDisplay:10.37,2013-11-30 20:31:00,
2013-11-30 15:36:00,49.5,34.4,30.44,East,91,0.0,0.0,56,0.00,SCT,,0.00,40.3,WeatherDisplay:10.37,2013-11-30 20:36:00,
2013-11-30 15:41:00,49.4,34.3,30.44,East,91,0.0,0.0,56,0.00,SCT,,0.00,34.5,WeatherDisplay:10.37,2013-11-30 20:41:00,
2013-11-30 15:46:00,49.2,35.0,30.44,East,91,0.0,0.0,58,0.00,SCT,,0.00,34.5,WeatherDisplay:10.37,2013-11-30 20:46:00,
2013-11-30 15:56:00,49.1,34.9,30.44,East,91,0.0,0.0,58,0.00,SCT,,0.00,28.8,WeatherDisplay:10.37,2013-11-30 20:56:00,
2013-11-30 16:01:00,48.9,35.2,30.43,ENE,75,0.0,0.0,59,0.00,SCT,,0.00,28.8,WeatherDisplay:10.37,2013-11-30 21:01:00,
2013-11-30 16:11:00,48.3,35.1,30.43,NNE,26,0.0,0.0,60,0.00,SCT,,0.00,26.4,WeatherDisplay:10.37,2013-11-30 21:11:00,
2013-11-30 16:16:00,48.2,35.0,30.43,NNE,26,0.0,0.0,60,0.00,SCT,,0.00,24.1,WeatherDisplay:10.37,2013-11-30 21:16:00,
2013-11-30 16:21:00,47.9,34.7,30.43,NNE,25,0.0,0.0,60,0.00,SCT,,0.00,21.9,WeatherDisplay:10.37,2013-11-30 21:21:00,
2013-11-30 16:26:00,47.6,34.4,30.43,NNE,24,0.0,0.0,60,0.00,SCT,,0.00,16.1,WeatherDisplay:10.37,2013-11-30 21:26:00,
2013-11-30 16:31:00,47.4,34.6,30.43,NNE,24,0.0,0.0,61,0.00,SCT,,0.00,18.4,WeatherDisplay:10.37,2013-11-30 21:31:00,
2013-11-30 16:36:00,47.3,34.5,30.43,NNE,24,0.0,0.0,61,0.00,SCT,,0.00,12.7,WeatherDisplay:10.37,2013-11-30 21:36:00,
2013-11-30 16:41:00,47.0,34.3,30.43,NNE,24,0.0,0.0,61,0.00,SCT,,0.00,12.7,WeatherDisplay:10.37,2013-11-30 21:41:00,
2013-11-30 16:46:00,46.8,34.5,30.43,NNE,24,0.0,0.0,62,0.00,SCT,,0.00,10.3,WeatherDisplay:10.37,2013-11-30 21:46:00,
2013-11-30 16:51:00,46.5,34.2,30.43,NNE,24,0.0,0.0,62,0.00,SCT,,0.00,5.8,WeatherDisplay:10.37,2013-11-30 21:51:00,
2013-11-30 16:56:00,46.4,34.5,30.43,NNE,24,0.0,0.0,63,0.00,SCT,,0.00,0.0,WeatherDisplay:10.37,2013-11-30 21:56:00,
2013-11-30 17:01:00,46.2,34.3,30.43,NNE,24,0.0,0.0,63,0.00,SCT,,0.00,0.0,WeatherDisplay:10.37,2013-11-30 22:01:00,
2013-11-30 17:06:00,46.1,34.2,30.43,NNE,24,0.0,0.0,63,0.00,SCT,,0.00,0.0,WeatherDisplay:10.37,2013-11-30 22:06:00,
2013-11-30 17:11:00,45.9,34.0,30.43,NNE,24,0.0,0.0,63,0.00,SCT,,0.00,0.0,WeatherDisplay:10.37,2013-11-30 22:11:00,
2013-11-30 17:21:00,45.4,33.9,30.43,NNE,24,0.0,0.0,64,0.00,SCT,,0.00,0.0,WeatherDisplay:10.37,2013-11-30 22:21:00,
2013-11-30 17:26:00,45.2,33.7,30.43,NNE,24,0.0,0.0,64,0.00,SCT,,0.00,0.0,WeatherDisplay:10.37,2013-11-30 22:26:00,
2013-11-30 17:31:00,44.9,33.5,30.43,NNE,24,0.0,0.0,64,0.00,SCT,,0.00,0.0,WeatherDisplay:10.37,2013-11-30 22:31:00,
2013-11-30 17:36:00,44.6,34.4,30.43,NNE,24,0.0,0.0,67,0.00,SCT,,0.00,0.0,WeatherDisplay:10.37,2013-11-30 22:36:00,
2013-11-30 17:41:00,44.3,33.7,30.43,NNE,24,0.0,0.0,66,0.00,SCT,,0.00,0.0,WeatherDisplay:10.37,2013-11-30 22:41:00,
2013-11-30 17:46:00,44.0,33.7,30.43,NNE,24,0.0,0.0,67,0.00,SCT,,0.00,0.0,WeatherDisplay:10.37,2013-11-30 22:46:00,
2013-11-30 17:51:00,43.6,33.4,30.43,NNE,24,0.0,0.0,67,0.00,SCT,,0.00,0.0,WeatherDisplay:10.37,2013-11-30 22:51:00,
2013-11-30 17:56:00,43.2,33.0,30.43,NNE,24,0.0,0.0,67,0.00,SCT,,0.00,0.0,WeatherDisplay:10.37,2013-11-30 22:56:00,
2013-11-30 18:01:00,42.9,33.8,30.43,NNE,24,0.0,0.0,70,0.00,SCT,,0.00,0.0,WeatherDisplay:10.37,2013-11-30 23:01:00,
2013-11-30 18:06:00,42.6,33.5,30.43,NNE,24,0.0,0.0,70,0.00,SCT,,0.00,0.0,WeatherDisplay:10.37,2013-11-30 23:06:00,
2013-11-30 18:11:00,42.2,32.8,30.43,NNE,24,0.0,0.0,69,0.00,SCT,,0.00,0.0,WeatherDisplay:10.37,2013-11-30 23:11:00,
2013-11-30 18:16:00,41.9,32.8,30.43,NNE,24,0.0,0.0,70,0.00,SCT,,0.00,0.0,WeatherDisplay:10.37,2013-11-30 23:16:00,
2013-11-30 18:21:00,41.6,32.8,30.43,NNE,24,0.0,0.0,71,0.00,SCT,,0.00,0.0,WeatherDisplay:10.37,2013-11-30 23:21:00,
2013-11-30 18:26:00,41.2,32.6,30.43,NNE,24,0.0,0.0,71,0.00,SCT,,0.00,0.0,WeatherDisplay:10.37,2013-11-30 23:26:00,
2013-11-30 18:31:00,40.9,32.6,30.43,NNE,24,0.0,0.0,72,0.00,SCT,,0.00,0.0,WeatherDisplay:10.37,2013-11-30 23:31:00,
2013-11-30 18:36:00,40.6,33.3,30.43,NNE,24,0.0,0.0,75,0.00,SCT,,0.00,0.0,WeatherDisplay:10.37,2013-11-30 23:36:00,
2013-11-30 18:41:00,40.3,33.0,30.43,NNE,24,0.0,0.0,75,0.00,SCT,,0.00,0.0,WeatherDisplay:10.37,2013-11-30 23:41:00,
2013-11-30 18:46:00,40.1,32.8,30.42,NNE,24,0.0,0.0,75,0.00,SCT,,0.00,0.0,WeatherDisplay:10.37,2013-11-30 23:46:00,
2013-11-30 18:51:00,39.8,32.5,30.42,NNE,24,0.0,0.0,75,0.00,SCT,,0.00,0.0,WeatherDisplay:10.37,2013-11-30 23:51:00,
2013-11-30 18:56:00,39.6,32.3,30.42,NNE,24,0.0,0.0,75,0.00,SCT,,0.00,0.0,WeatherDisplay:10.37,2013-11-30 23:56:00,
2013-11-30 19:01:00,39.3,32.4,30.42,NNE,24,0.0,0.0,76,0.00,SCT,,0.00,0.0,WeatherDisplay:10.37,2013-12-01 00:01:00,
2013-11-30 19:06:00,39.1,32.5,30.41,NNE,24,0.0,0.0,77,0.00,SCT,,0.00,0.0,WeatherDisplay:10.37,2013-12-01 00:06:00,
2013-11-30 19:11:00,38.9,32.3,30.41,NNE,24,0.0,0.0,77,0.00,SCT,,0.00,0.0,WeatherDisplay:10.37,2013-12-01 00:11:00,
2013-11-30 19:16:00,38.8,32.5,30.41,NNE,24,0.0,0.0,78,0.00,SCT,,0.00,0.0,WeatherDisplay:10.37,2013-12-01 00:16:00,
2013-11-30 19:21:00,38.5,32.6,30.41,NNE,24,0.0,0.0,79,0.00,SCT,,0.00,0.0,WeatherDisplay:10.37,2013-12-01 00:21:00,
2013-11-30 19:26:00,38.4,32.4,30.41,NNE,24,0.0,0.0,79,0.00,SCT,,0.00,0.0,WeatherDisplay:10.37,2013-12-01 00:26:00,
2013-11-30 19:31:00,38.3,32.6,30.41,NNE,24,0.0,0.0,80,0.00,SCT,,0.00,0.0,WeatherDisplay:10.37,2013-12-01 00:31:00,
2013-11-30 19:36:00,38.1,32.8,30.40,NNE,24,0.0,0.0,81,0.00,SCT,,0.00,0.0,WeatherDisplay:10.37,2013-12-01 00:36:00,
2013-11-30 19:41:00,38.0,32.4,30.40,NNE,24,0.0,0.0,80,0.00,SCT,,0.00,0.0,WeatherDisplay:10.37,2013-12-01 00:41:00,
2013-11-30 19:46:00,37.9,32.3,30.40,NNE,24,0.0,0.0,80,0.00,SCT,,0.00,0.0,WeatherDisplay:10.37,2013-12-01 00:46:00,
2013-11-30 19:51:00,37.8,32.5,30.40,NNE,24,0.0,0.0,81,0.00,SCT,,0.00,0.0,WeatherDisplay:10.37,2013-12-01 00:51:00,
2013-11-30 19:56:00,37.6,32.3,30.40,NNE,24,0.0,0.0,81,0.00,SCT,,0.00,0.0,WeatherDisplay:10.37,2013-12-01 00:56:00,
2013-11-30 20:01:00,37.5,32.2,30.40,NNE,24,0.0,0.0,81,0.00,FEW,,0.00,0.0,WeatherDisplay:10.37,2013-12-01 01:01:00,
2013-11-30 20:06:00,37.5,32.5,30.39,NNE,24,0.0,0.0,82,0.00,FEW,,0.00,0.0,WeatherDisplay:10.37,2013-12-01 01:06:00,
2013-11-30 20:11:00,37.3,32.3,30.39,NNE,24,0.0,0.0,82,0.00,FEW,,0.00,0.0,WeatherDisplay:10.37,2013-12-01 01:11:00,
2013-11-30 20:16:00,37.2,32.2,30.39,NNE,24,0.0,0.0,82,0.00,FEW,,0.00,0.0,WeatherDisplay:10.37,2013-12-01 01:16:00,
2013-11-30 20:21:00,37.0,32.3,30.39,NNE,24,0.0,0.0,83,0.00,FEW,,0.00,0.0,WeatherDisplay:10.37,2013-12-01 01:21:00,
2013-11-30 20:26:00,36.9,32.2,30.39,NNE,24,0.0,0.0,83,0.00,FEW,,0.00,0.0,WeatherDisplay:10.37,2013-12-01 01:26:00,
2013-11-30 20:31:00,36.8,32.4,30.39,NNE,24,0.0,0.0,84,0.00,FEW,,0.00,0.0,WeatherDisplay:10.37,2013-12-01 01:31:00,
2013-11-30 20:41:00,36.4,32.1,30.39,NNE,24,0.0,0.0,84,0.00,FEW,,0.00,0.0,WeatherDisplay:10.37,2013-12-01 01:41:00,
2013-11-30 20:46:00,36.2,31.5,30.40,NNE,24,0.0,0.0,83,0.00,FEW,,0.00,0.0,WeatherDisplay:10.37,2013-12-01 01:46:00,
2013-11-30 20:51:00,36.0,31.3,30.40,NNE,24,0.0,0.0,83,0.00,FEW,,0.00,0.0,WeatherDisplay:10.37,2013-12-01 01:51:00,
2013-11-30 20:56:00,35.9,31.2,30.40,NNE,24,0.0,0.0,83,0.00,FEW,,0.00,0.0,WeatherDisplay:10.37,2013-12-01 01:56:00,
2013-11-30 21:01:00,35.8,31.4,30.40,NNE,24,0.0,0.0,84,0.00,FEW,,0.00,0.0,WeatherDisplay:10.37,2013-12-01 02:01:00,
2013-11-30 21:11:00,35.5,31.1,30.40,NNE,24,0.0,0.0,84,0.00,FEW,,0.00,0.0,WeatherDisplay:10.37,2013-12-01 02:11:00,
2013-11-30 21:16:00,35.5,31.1,30.40,NNE,24,0.0,0.0,84,0.00,FEW,,0.00,0.0,WeatherDisplay:10.37,2013-12-01 02:16:00,
2013-11-30 21:21:00,35.3,30.9,30.40,NNE,24,0.0,0.0,84,0.00,FEW,,0.00,0.0,WeatherDisplay:10.37,2013-12-01 02:21:00,
2013-11-30 21:26:00,35.3,31.2,30.40,NNE,24,0.0,0.0,85,0.00,FEW,,0.00,0.0,WeatherDisplay:10.37,2013-12-01 02:26:00,
2013-11-30 21:31:00,35.2,31.1,30.40,NNE,24,0.0,0.0,85,0.00,FEW,,0.00,0.0,WeatherDisplay:10.37,2013-12-01 02:31:00,
2013-11-30 21:36:00,35.1,31.3,30.39,NNE,24,0.0,0.0,86,0.00,FEW,,0.00,0.0,WeatherDisplay:10.37,2013-12-01 02:36:00,
2013-11-30 21:46:00,34.9,31.1,30.39,NNE,24,0.0,0.0,86,0.00,FEW,,0.00,0.0,WeatherDisplay:10.37,2013-12-01 02:46:00,
2013-11-30 21:51:00,34.9,31.1,30.39,NNE,24,0.0,0.0,86,0.00,FEW,,0.00,0.0,WeatherDisplay:10.37,2013-12-01 02:51:00,
2013-11-30 21:56:00,34.7,30.9,30.39,NNE,24,0.0,0.0,86,0.00,FEW,,0.00,0.0,WeatherDisplay:10.37,2013-12-01 02:56:00,
2013-11-30 22:01:00,34.6,30.6,30.39,NNE,24,0.0,0.0,85,0.00,FEW,,0.00,0.0,WeatherDisplay:10.37,2013-12-01 03:01:00,
2013-11-30 22:11:00,34.4,30.6,30.39,NNE,24,0.0,0.0,86,0.00,FEW,,0.00,0.0,WeatherDisplay:10.37,2013-12-01 03:11:00,
2013-11-30 22:16:00,34.4,30.6,30.38,NNE,24,0.0,0.0,86,0.00,FEW,,0.00,0.0,WeatherDisplay:10.37,2013-12-01 03:16:00,
2013-11-30 22:21:00,34.3,30.5,30.38,NNE,24,0.0,0.0,86,0.00,FEW,,0.00,0.0,WeatherDisplay:10.37,2013-12-01 03:21:00,
2013-11-30 22:26:00,34.3,30.5,30.38,NNE,24,0.0,0.0,86,0.00,FEW,,0.00,0.0,WeatherDisplay:10.37,2013-12-01 03:26:00,
2013-11-30 22:31:00,34.3,30.5,30.38,NNE,24,0.0,0.0,86,0.00,FEW,,0.00,0.0,WeatherDisplay:10.37,2013-12-01 03:31:00,
2013-11-30 22:36:00,34.1,30.6,30.38,NNE,24,0.0,0.0,87,0.00,FEW,,0.00,0.0,WeatherDisplay:10.37,2013-12-01 03:36:00,
2013-11-30 22:41:00,34.1,30.6,30.38,NNE,24,0.0,0.0,87,0.00,FEW,,0.00,0.0,WeatherDisplay:10.37,2013-12-01 03:41:00,
2013-11-30 22:46:00,34.0,30.3,30.38,NNE,24,0.0,0.0,86,0.00,FEW,,0.00,0.0,WeatherDisplay:10.37,2013-12-01 03:46:00,
2013-11-30 22:51:00,33.9,30.1,30.38,NNE,24,0.0,0.0,86,0.00,FEW,,0.00,0.0,WeatherDisplay:10.37,2013-12-01 03:51:00,
2013-11-30 22:56:00,33.8,30.1,30.38,NNE,24,0.0,0.0,86,0.00,FEW,,0.00,0.0,WeatherDisplay:10.37,2013-12-01 03:56:00,
2013-11-30 23:01:00,33.8,30.3,30.37,NNE,24,0.0,0.0,87,0.00,FEW,,0.00,0.0,WeatherDisplay:10.37,2013-12-01 04:01:00,
2013-11-30 23:11:00,33.7,30.2,30.37,NNE,24,0.0,0.0,87,0.00,FEW,,0.00,0.0,WeatherDisplay:10.37,2013-12-01 04:11:00,
2013-11-30 23:16:00,33.7,30.2,30.37,NNE,24,0.0,0.0,87,0.00,FEW,,0.00,0.0,WeatherDisplay:10.37,2013-12-01 04:16:00,
2013-11-30 23:21:00,33.5,30.0,30.36,NNE,24,0.0,0.0,87,0.00,FEW,,0.00,0.0,WeatherDisplay:10.37,2013-12-01 04:21:00,
2013-11-30 23:26:00,33.5,30.0,30.36,NNE,24,0.0,0.0,87,0.00,FEW,,0.00,0.0,WeatherDisplay:10.37,2013-12-01 04:26:00,
2013-11-30 23:31:00,33.4,29.9,30.36,NNE,24,0.0,0.0,87,0.00,FEW,,0.00,0.0,WeatherDisplay:10.37,2013-12-01 04:31:00,
2013-11-30 23:36:00,33.4,29.9,30.36,NNE,24,0.0,0.0,87,0.00,FEW,,0.00,0.0,WeatherDisplay:10.37,2013-12-01 04:36:00,
2013-11-30 23:41:00,33.2,29.8,30.36,NNE,24,0.0,0.0,87,0.00,FEW,,0.00,0.0,WeatherDisplay:10.37,2013-12-01 04:41:00,
2013-11-30 23:46:00,33.2,29.8,30.36,NNE,24,0.0,0.0,87,0.00,FEW,,0.00,0.0,WeatherDisplay:10.37,2013-12-01 04:46:00,
2013-11-30 23:51:00,33.2,29.8,30.36,NNE,24,0.0,0.0,87,0.00,FEW,,0.00,0.0,WeatherDisplay:10.37,2013-12-01 04:51:00,
2013-11-30 23:56:00,33.1,29.7,30.36,NNE,24,0.0,0.0,87,0.00,FEW,,0.00,0.0,WeatherDisplay:10.37,2013-12-01 04:56:00,